sat.trackr.live / text

‹ back to catalog

STARLINK-1888

NORAD 47171 · 2020-088BB

PAYLOAD ACTIVE UNKNOWN

§ Identity

Operator
Country
US
Launch date
2020-11-25
Launch site
AFETR
Launch vehicle
Mass (kg)
RCS (m²)

Purposes: comms

External: N2YO · Heavens-Above · Gunter

§ Orbital elements

Epoch: 2026-09-12T22:43:56.740800Z

Period
89.56 min
Inclination
53.0339°
Eccentricity
0.0001638
Mean motion
16.07812776 rev/d
Perigee alt
251.8 km
Apogee alt
253.9 km
Semi-major
6,631.0 km
B*
9.9321e-4
RAAN
73.7742°
Arg perigee
107.4136°
Mean anomaly
252.7076°
Rev number
32,156

§ Raw data

STARLINK-18881 47171U 20088BB  26255.94718450  .00829495  37820-3  99321-3 0  99932 47171  53.0339  73.7742 0001638 107.4136 252.7076 16.07812776321566

JSON: /api/v1/satellites/47171 · /tle

For live sub-satellite position, see the globe view (requires WebGL).

§ Visibility from observer

Set your observer location to see the next 7 days of passes ≥ 10°. The values pass through the URL so the page stays shareable.

No JS? Fill the form by hand. The geolocation button needs JavaScript.